TimeEST,TemperatureF,Dew PointF,Humidity,Sea Level PressureIn,VisibilityMPH,Wind Direction,Wind SpeedMPH,Gust SpeedMPH,PrecipitationIn,Events,Conditions,WindDirDegrees,DateUTC
12:54 AM,32.0,23.0,69,30.29,10.0,North,5.8,-,N/A,,Overcast,360,2013-01-15 05:54:00
1:07 AM,32.0,21.2,64,30.26,10.0,NNW,6.9,-,N/A,,Overcast,330,2013-01-15 06:07:00
1:54 AM,32.0,19.9,61,30.29,10.0,North,8.1,-,N/A,,Overcast,350,2013-01-15 06:54:00
2:41 AM,30.2,17.6,60,30.26,10.0,North,4.6,-,N/A,,Overcast,350,2013-01-15 07:41:00
2:54 AM,30.9,18.0,59,30.30,10.0,North,5.8,-,N/A,,Overcast,350,2013-01-15 07:54:00
4:54 AM,30.0,17.1,59,30.28,10.0,North,8.1,-,N/A,,Overcast,360,2013-01-15 09:54:00
5:54 AM,30.0,17.1,59,30.28,10.0,NNE,8.1,-,N/A,,Overcast,20,2013-01-15 10:54:00
6:54 AM,30.0,18.0,61,30.31,10.0,Calm,Calm,-,N/A,,Overcast,0,2013-01-15 11:54:00
7:54 AM,30.0,18.0,61,30.34,10.0,NW,3.5,-,N/A,,Overcast,310,2013-01-15 12:54:00
8:54 AM,28.9,17.1,61,30.35,10.0,NE,3.5,-,N/A,,Overcast,50,2013-01-15 13:54:00
9:54 AM,30.0,18.0,61,30.36,10.0,NW,3.5,-,N/A,,Overcast,320,2013-01-15 14:54:00
10:54 AM,30.0,17.1,59,30.34,10.0,Variable,3.5,-,N/A,,Overcast,0,2013-01-15 15:54:00
11:54 AM,30.9,17.1,57,30.32,10.0,NNW,4.6,-,N/A,,Overcast,330,2013-01-15 16:54:00
12:54 PM,30.9,16.0,54,30.30,10.0,NNW,8.1,-,N/A,,Overcast,330,2013-01-15 17:54:00
1:54 PM,30.0,17.1,59,30.31,10.0,NNW,5.8,-,N/A,,Overcast,340,2013-01-15 18:54:00
2:54 PM,30.0,16.0,56,30.30,10.0,North,6.9,-,N/A,,Overcast,360,2013-01-15 19:54:00
3:54 PM,28.0,17.1,63,30.31,10.0,North,4.6,-,N/A,,Partly Cloudy,350,2013-01-15 20:54:00
4:54 PM,27.0,16.0,63,30.30,10.0,Calm,Calm,-,N/A,,Clear,0,2013-01-15 21:54:00
5:54 PM,24.1,16.0,71,30.32,10.0,Calm,Calm,-,N/A,,Clear,0,2013-01-15 22:54:00
6:54 PM,23.0,16.0,74,30.32,10.0,Calm,Calm,-,N/A,,Clear,0,2013-01-15 23:54:00
7:54 PM,21.0,16.0,81,30.30,10.0,Calm,Calm,-,N/A,,Partly Cloudy,0,2013-01-16 00:54:00
8:54 PM,21.0,17.1,85,30.30,10.0,Calm,Calm,-,N/A,,Scattered Clouds,0,2013-01-16 01:54:00
9:54 PM,21.9,18.0,85,30.27,10.0,Calm,Calm,-,N/A,,Clear,0,2013-01-16 02:54:00
10:54 PM,23.0,18.0,81,30.27,10.0,Calm,Calm,-,N/A,,Clear,0,2013-01-16 03:54:00
11:54 PM,23.0,18.0,81,30.27,10.0,Calm,Calm,-,N/A,,Scattered Clouds,0,2013-01-16 04:54:00